Regional Weather Roundup
Issued by NWS

Home | Current Version | Previous Version | Graphics & Text | Print | Product List | Glossary On
Versions: 1 2 3 4 5 6 7 8 9 10 11 12 13 14 15 16 17 18 19 20 21 22 23 24 25 26 27 28 29 30 31 32 33 34 35 36 37 38 39 40 41 42 43 44 45 46 47 48 49 50
000
ASUS45 KSLC 261910
RWRUT

UTAH REGIONAL WEATHER ROUNDUP
NATIONAL WEATHER SERVICE SALT LAKE CITY UT
100 PM MDT SUN APR 26 2015

UTZ001>011-023>025-262000-

NORTHERN UTAH

CITY           SKY/WX    TMP DP  RH WIND       PRES   REMARKS
BRIGHAM CITY   CLOUDY    49  31  49 N9G18     30.00F
HILL AFB       CLOUDY    46  32  58 N10       29.99S
LOGAN          CLOUDY    46  32  58 N6        30.00R
OGDEN          CLOUDY    48  33  56 N14       29.99R
PROVO AIRPORT  PTSUNNY   48  34  57 NW22G28   29.97R
SALT LAKE CITY PTSUNNY   47  33  58 NW17      30.00R
VERNAL         CLOUDY    49  39  68 E9        29.83R
WENDOVER       SUNNY     54  18  24 N14G30    30.03S
HEBER CITY     CLOUDY    45  32  61 NE15G22   29.95R
WEST JORDAN    PTSUNNY   46  36  66 NW13G29   30.00R

$$

UTZ012>022-026-027-262000-

SOUTHERN/CENTRAL UTAH

CITY           SKY/WX    TMP DP  RH WIND       PRES   REMARKS
BLANDING       CLOUDY    44  39  84 S5        29.87S
BRYCE CANYON   CLOUDY    40  28  62 NW21      29.90R WCI  30
CEDAR CITY     PTSUNNY   48  30  49 NE18G26   29.94S
DELTA          CLOUDY    47  32  55 N15G22    29.99R
HANKSVILLE     PTSUNNY   54  36  50 CALM      29.83S
MILFORD        MOSUNNY   52  24  33 N23G31    29.96S
MOAB/CYNLANDS  PTSUNNY   56  43  61 NW10      29.77F
PRICE          SUNNY     50  32  50 NW17G24   29.84S
ST GEORGE      MOCLDY    61  34  36 CALM      29.91S
KANAB          MOSUNNY   54  30  40 NW9G18    29.90S

$$

REGIONAL REPORTS     COLORADO/ARIZONA

CITY           SKY/WX    TMP DP  RH WIND       PRES   REMARKS
CRAIG, CO      PTSUNNY   55  37  50 W9        29.76F
GRAND JUNCTION PTSUNNY   50  42  74 MISG      29.78F
RIFLE          PTSUNNY   53  42  66 W20G26    29.75F
MONTROSE       CLOUDY    46  40  79 NW10      29.80S
CORTEZ         CLOUDY    50  39  66 VRB7      29.77F
PAGE, AZ       CLOUDY    60  31  33 N8        29.79F
GRAND CANYON   PTSUNNY   46  32  58 N12G24    29.87S
KINGMAN        SUNNY     62  31  31 NW20G32   29.91F
FLAGSTAFF      MOSUNNY   45  34  65 N12G22    29.86F

$$

REGIONAL REPORTS    NEVADA/IDAHO/WYOMING

CITY           SKY/WX    TMP DP  RH WIND       PRES   REMARKS
LAS VEGAS, NV  MOSUNNY   69  25  19 W26G33    29.89F
ELY            CLOUDY    41  21  44 N14       30.05R
ELKO           SUNNY     47  18  31 N13G24    30.10S
POCATELLO, ID  PTSUNNY   47  30  51 SW16G26   30.03R
BURLEY         MOSUNNY   50  25  37 W17G29    30.04R
EVANSTON, WY   CLOUDY    34  30  85 W6        29.96R WCI  29
ROCK SPRINGS   LGT RAIN  40  38  93 NE13      29.89R WCI  32
KEMMERER       CLOUDY    41  34  75 W17G24    29.92R

$$


USA.gov is the U.S. government's official web portal to all federal, state and local government web resources and services.